When you browse on this site, cookies collect data to enhance your experience and personalize the content and advertising you see.
Visit our Privacy Policy to learn more. By continuing to use the site, you agree to this use of cookies and data.
  • In United Kingdom
  • List of Countries
  • For 7 days
  • Water Temperature
  • Weather Map
  • Weather Widgets
  • user-avatar
    Login

    Hourly Weather Kisvarda

    Today, 23 September, Monday

    Time Temperature Precipitation Wind Pressure Humidity
    00:00 +12°C° 0 mm 2 mps 754 mmHg 56%
    01:00 +12°C° 0 mm 1 mps 753 mmHg 58%
    02:00 +11°C° 0 mm 1 mps 753 mmHg 58%
    03:00 +11°C° 0 mm 1 mps 753 mmHg 59%
    04:00 +11°C° 0 mm 1 mps 753 mmHg 60%
    05:00 +12°C° 0 mm 1 mps 753 mmHg 58%
    06:00 +13°C° 0 mm 1 mps 753 mmHg 55%
    07:00 +14°C° 0 mm 2 mps 752 mmHg 53%
    08:00 +15°C° 0 mm 2 mps 752 mmHg 50%
    09:00 +16°C° 0 mm 1 mps 752 mmHg 47%
    10:00 +18°C° 0 mm 1 mps 752 mmHg 44%
    11:00 +17°C° 0 mm 2 mps 752 mmHg 44%
    12:00 +18°C° 0 mm 2 mps 752 mmHg 44%
    13:00 +18°C° 0 mm 2 mps 752 mmHg 43%
    14:00 +18°C° 0 mm 2 mps 752 mmHg 45%
    15:00 +18°C° 0 mm 2 mps 751 mmHg 46%
    16:00 +18°C° 0 mm 2 mps 751 mmHg 47%
    17:00 +17°C° 0 mm 2 mps 751 mmHg 51%
    18:00 +16°C° 0 mm 2 mps 752 mmHg 54%
    19:00 +14°C° 0 mm 2 mps 752 mmHg 58%
    20:00 +14°C° 0 mm 2 mps 752 mmHg 62%
    21:00 +13°C° 0 mm 2 mps 752 mmHg 66%
    22:00 +13°C° 0 mm 2 mps 752 mmHg 69%
    23:00 +12°C° 0 mm 2 mps 752 mmHg 73%

    Tomorrow, 24 September, Tuesday

    Time Temperature Precipitation Wind Pressure Humidity
    00:00 +12°C° 0 mm 2 mps 752 mmHg 76%
    01:00 +10°C° 0 mm 2 mps 752 mmHg 80%
    02:00 +10°C° 0 mm 2 mps 751 mmHg 81%
    03:00 +10°C° 0 mm 2 mps 751 mmHg 82%
    04:00 +10°C° 0 mm 2 mps 751 mmHg 83%
    05:00 +12°C° 0 mm 2 mps 751 mmHg 79%
    06:00 +13°C° 0 mm 2 mps 751 mmHg 75%
    07:00 +13°C° 0 mm 2 mps 751 mmHg 71%
    08:00 +16°C° 0 mm 2 mps 751 mmHg 61%
    09:00 +19°C° 0 mm 2 mps 751 mmHg 52%
    10:00 +23°C° 0 mm 2 mps 751 mmHg 42%
    11:00 +24°C° 0 mm 2 mps 750 mmHg 39%
    12:00 +25°C° 0 mm 1 mps 750 mmHg 35%
    13:00 +26°C° 0 mm 1 mps 750 mmHg 31%
    14:00 +26°C° 0 mm 1 mps 750 mmHg 33%
    15:00 +26°C° 0 mm 1 mps 750 mmHg 34%
    16:00 +25°C° 0 mm 1 mps 749 mmHg 36%
    17:00 +23°C° 0 mm 2 mps 750 mmHg 42%
    18:00 +19°C° 0 mm 2 mps 750 mmHg 49%
    19:00 +17°C° 0 mm 2 mps 750 mmHg 55%
    20:00 +16°C° 0 mm 2 mps 750 mmHg 60%
    21:00 +15°C° 0 mm 2 mps 751 mmHg 65%
    22:00 +14°C° 0 mm 2 mps 751 mmHg 71%
    23:00 +14°C° 0 mm 2 mps 751 mmHg 72%

    Day after tomorrow, 25 September, Wednesday

    Time Temperature Precipitation Wind Pressure Humidity
    00:00 +14°C° 0 mm 2 mps 750 mmHg 74%
    01:00 +13°C° 0 mm 2 mps 750 mmHg 76%
    02:00 +14°C° 0 mm 2 mps 750 mmHg 75%
    03:00 +14°C° 0 mm 2 mps 750 mmHg 75%
    04:00 +14°C° 0 mm 2 mps 750 mmHg 74%
    05:00 +14°C° 0 mm 2 mps 750 mmHg 74%
    06:00 +14°C° 0 mm 2 mps 750 mmHg 74%
    07:00 +15°C° 0 mm 2 mps 750 mmHg 74%
    08:00 +15°C° 0.3 mm 2 mps 750 mmHg 77%
    09:00 +15°C° 0.3 mm 2 mps 750 mmHg 80%
    10:00 +15°C° 0.3 mm 2 mps 750 mmHg 83%
    11:00 +15°C° 0.2 mm 2 mps 750 mmHg 84%
    12:00 +15°C° 0.2 mm 2 mps 750 mmHg 85%
    13:00 +16°C° 0.2 mm 3 mps 750 mmHg 86%
    14:00 +14°C° 0 mm 3 mps 750 mmHg 87%
    15:00 +14°C° 0 mm 3 mps 750 mmHg 87%
    16:00 +14°C° 0 mm 3 mps 750 mmHg 87%
    17:00 +14°C° 0 mm 3 mps 750 mmHg 89%
    18:00 +14°C° 0 mm 2 mps 750 mmHg 91%
    19:00 +14°C° 0 mm 2 mps 750 mmHg 93%
    20:00 +14°C° 0 mm 2 mps 750 mmHg 93%
    21:00 +13°C° 0 mm 1 mps 750 mmHg 94%
    22:00 +13°C° 0 mm 1 mps 750 mmHg 94%
    23:00 +13°C° 0 mm 1 mps 750 mmHg 94%

    26 September, Thursday

    Time Temperature Precipitation Wind Pressure Humidity
    00:00 +13°C° 0 mm 1 mps 750 mmHg 93%
    01:00 +13°C° 0 mm 1 mps 750 mmHg 92%
    02:00 +13°C° 0.1 mm 1 mps 750 mmHg 92%
    03:00 +12°C° 0.1 mm 0 mps 750 mmHg 92%
    04:00 +13°C° 0.1 mm 0 mps 750 mmHg 91%
    05:00 +13°C° 0.3 mm 0 mps 750 mmHg 92%
    06:00 +13°C° 0.3 mm 0 mps 750 mmHg 93%
    07:00 +13°C° 0.3 mm 0 mps 750 mmHg 93%
    08:00 +13°C° 0.3 mm 0 mps 751 mmHg 92%
    09:00 +13°C° 0.3 mm 0 mps 751 mmHg 91%
    10:00 +14°C° 0.3 mm 0 mps 751 mmHg 90%
    11:00 +15°C° 0 mm 1 mps 751 mmHg 88%
    12:00 +15°C° 0 mm 1 mps 751 mmHg 87%
    13:00 +16°C° 0 mm 1 mps 751 mmHg 86%
    14:00 +16°C° 0 mm 1 mps 751 mmHg 85%
    15:00 +16°C° 0 mm 1 mps 751 mmHg 84%
    16:00 +16°C° 0 mm 1 mps 751 mmHg 83%
    17:00 +15°C° 0 mm 1 mps 752 mmHg 86%
    18:00 +14°C° 0 mm 1 mps 752 mmHg 89%
    19:00 +13°C° 0 mm 1 mps 753 mmHg 92%
    20:00 +13°C° 0 mm 1 mps 753 mmHg 92%
    21:00 +11°C° 0 mm 0 mps 753 mmHg 92%
    22:00 +11°C° 0 mm 0 mps 754 mmHg 92%
    23:00 +11°C° 0 mm 0 mps 754 mmHg 92%

    27 September, Friday

    Time Temperature Precipitation Wind Pressure Humidity
    00:00 +11°C° 0 mm 0 mps 754 mmHg 92%
    01:00 +10°C° 0 mm 0 mps 754 mmHg 92%
    02:00 +10°C° 0 mm 0 mps 754 mmHg 92%
    03:00 +10°C° 0 mm 0 mps 754 mmHg 92%
    04:00 +10°C° 0 mm 0 mps 755 mmHg 93%
    05:00 +10°C° 0 mm 0 mps 755 mmHg 91%
    06:00 +12°C° 0 mm 1 mps 755 mmHg 89%
    07:00 +13°C° 0 mm 1 mps 755 mmHg 87%
    08:00 +15°C° 0 mm 1 mps 755 mmHg 80%
    09:00 +18°C° 0 mm 1 mps 755 mmHg 72%
    10:00 +19°C° 0 mm 1 mps 755 mmHg 65%
    11:00 +21°C° 0 mm 1 mps 755 mmHg 59%
    12:00 +22°C° 0 mm 1 mps 755 mmHg 53%
    13:00 +23°C° 0 mm 1 mps 754 mmHg 48%
    14:00 +23°C° 0 mm 1 mps 754 mmHg 48%
    15:00 +23°C° 0 mm 1 mps 754 mmHg 49%
    16:00 +23°C° 0 mm 1 mps 754 mmHg 49%
    17:00 +21°C° 0 mm 1 mps 754 mmHg 54%
    18:00 +19°C° 0 mm 1 mps 754 mmHg 60%
    19:00 +18°C° 0 mm 1 mps 755 mmHg 65%
    20:00 +16°C° 0 mm 1 mps 755 mmHg 67%
    21:00 +16°C° 0 mm 1 mps 755 mmHg 68%
    22:00 +16°C° 0 mm 2 mps 755 mmHg 69%
    23:00 +15°C° 0 mm 2 mps 755 mmHg 71%

    28 September, Saturday

    Time Temperature Precipitation Wind Pressure Humidity
    00:00 +15°C° 0 mm 2 mps 755 mmHg 72%
    01:00 +14°C° 0 mm 2 mps 754 mmHg 74%
    02:00 +14°C° 0 mm 2 mps 754 mmHg 74%
    03:00 +14°C° 0 mm 2 mps 754 mmHg 75%
    04:00 +14°C° 0 mm 2 mps 754 mmHg 75%
    05:00 +14°C° 0 mm 2 mps 754 mmHg 73%
    06:00 +15°C° 0 mm 2 mps 754 mmHg 71%
    07:00 +15°C° 0 mm 2 mps 754 mmHg 68%
    08:00 +17°C° 0 mm 2 mps 754 mmHg 65%
    09:00 +18°C° 0 mm 2 mps 754 mmHg 62%
    10:00 +19°C° 0 mm 2 mps 754 mmHg 60%
    11:00 +20°C° 0 mm 2 mps 754 mmHg 55%
    12:00 +23°C° 0 mm 2 mps 753 mmHg 50%
    13:00 +24°C° 0 mm 2 mps 753 mmHg 45%
    14:00 +24°C° 0 mm 2 mps 752 mmHg 46%
    15:00 +24°C° 0 mm 1 mps 752 mmHg 47%
    16:00 +24°C° 0 mm 1 mps 752 mmHg 48%
    17:00 +22°C° 0 mm 1 mps 752 mmHg 53%
    18:00 +20°C° 0 mm 1 mps 752 mmHg 57%
    19:00 +18°C° 0 mm 2 mps 752 mmHg 61%
    20:00 +17°C° 0 mm 2 mps 752 mmHg 62%
    21:00 +17°C° 0 mm 2 mps 752 mmHg 64%
    22:00 +17°C° 0 mm 2 mps 752 mmHg 65%
    23:00 +17°C° 0 mm 2 mps 752 mmHg 64%
    Show more